Content
SEND FEEDBACK

Daily
Averages
Monthly
Summary
Canada

VANCOUVER, BRITISH COLUMBIA


Home > North America > Canada > British Columbia
Elevation: 7 feet     Latitude: 49 11N     Longitude: 123 10W

WEATHER
 
SELECT A DAY
Number of Records: 253,051;   Date Range: 5/15/97 - 10/22/14
 
SHARE

PRINT THIS DATA

[ ← Previous Day ]
WEATHER ALMANAC - OCTOBER 25, 2013
[ Next Day → ]
[ °C ]   °F
Weather ElementAverageHighLow
Temperature49 °F51.8 °F (1:15 pm)46.4 °F (12:35 am)
Dewpoint48.6 °F50 °F (9:55 am)46.4 °F (12:35 am)
Humidity98.6 %100 % (12:35 am)88 % (1:55 pm)
Barometer30.23 in30.32 in (10:15 pm)30.11 in (12:35 am)
Wind Speed2.3 mph8.1 mph (3:15 am)
Weather ElementAverage
Visibility7.1 mi
Wind DirectionENE (75.6 °)

Weather ElementTotal
Precipitation---
Heating Degree Days15.9 (Base 65)
Averaged from 71 records on October 25, 2013
WEATHER CONDITIONS BREAKOUT
WIND DIRECTION BREAKOUT
WEATHER BY HOUR - OCTOBER 25, 2013
[ °C ]   °F
Local TimeTemperatureDewpointHumidityBarometerVisibilityWind DirectionWind SpeedGust SpeedPrecipitationEventsConditions
12:35 AM46.4 °F46.4 °F100 %30.11 in2.5 miSouth (190°)4.6 mphOvercast
12:55 AM46.4 °F46.4 °F100 %30.12 in2.0 miCalmOvercast
1:15 AM46.4 °F46.4 °F100 %30.12 in3.0 miSouth (170°)5.8 mphOvercast
1:35 AM46.4 °F46.4 °F100 %30.12 in5.0 miSE (140°)5.8 mphOvercast
1:55 AM46.4 °F46.4 °F100 %30.13 in7.0 miEast (100°)4.6 mphOvercast
2:15 AM46.4 °F46.4 °F100 %30.13 in4.0 miEast (90°)4.6 mphOvercast
2:35 AM46.4 °F46.4 °F100 %30.14 in5.0 miCalmOvercast
2:55 AM48.2 °F48.2 °F100 %30.13 in5.0 miSouth (190°)4.6 mphOvercast
3:15 AM48.2 °F48.2 °F100 %30.14 in4.0 miSouth (180°)8.1 mphOvercast
3:35 AM48.2 °F48.2 °F100 %30.14 in5.0 miSouth (170°)5.8 mphOvercast
3:55 AM48.2 °F48.2 °F100 %30.14 in4.0 miSSE (150°)4.6 mphOvercast
4:15 AM48.2 °F48.2 °F100 %30.14 in4.0 miSE (130°)5.8 mphOvercast
4:35 AM48.2 °F48.2 °F100 %30.14 in5.0 miSSE (160°)4.6 mphOvercast
4:55 AM48.2 °F48.2 °F100 %30.15 in7.0 miSouth (170°)4.6 mphOvercast
5:15 AM48.2 °F48.2 °F100 %30.15 in7.0 miSouth (180°)4.6 mphOvercast
5:35 AM48.2 °F48.2 °F100 %30.16 in8.0 miSouth (190°)6.9 mphOvercast
5:55 AM48.2 °F48.2 °F100 %30.16 in7.0 miNorthOvercast
6:15 AM48.2 °F48.2 °F100 %30.17 in7.0 miSE (130°)4.6 mphOvercast
6:35 AM48.2 °F48.2 °F100 %30.17 in6.0 miSE (130°)3.5 mphOvercast
6:55 AM48.2 °F48.2 °F100 %30.17 in6.0 miCalmRainLight Rain
7:15 AM48.2 °F48.2 °F100 %30.18 in5.0 miCalmOvercast
7:35 AM48.2 °F48.2 °F100 %30.18 in5.0 miCalmOvercast
7:55 AM48.2 °F48.2 °F100 %30.19 in4.0 miCalmOvercast
8:15 AM48.2 °F48.2 °F100 %30.20 in3.0 miCalmOvercast
8:35 AM48.2 °F48.2 °F100 %30.20 in5.0 miNorthOvercast
8:55 AM48.2 °F48.2 °F100 %30.21 in3.0 miCalmOvercast
9:15 AM48.2 °F48.2 °F100 %30.21 in3.0 miSouth (170°)3.5 mphOvercast
9:35 AM48.2 °F48.2 °F100 %30.22 in3.0 miCalmOvercast
9:55 AM50.0 °F50.0 °F100 %30.22 in8.0 miCalmOvercast
10:15 AM50.0 °F50.0 °F100 %30.23 in8.0 miSouth (180°)5.8 mphOvercast
10:35 AM50.0 °F50.0 °F100 %30.23 in8.0 miSouth (170°)4.6 mphOvercast
10:55 AM50.0 °F50.0 °F100 %30.24 in7.0 miSouth (170°)4.6 mphOvercast
11:15 AM50.0 °F50.0 °F100 %30.25 in7.0 miSouth (170°)4.6 mphOvercast
11:35 AM50.0 °F50.0 °F100 %30.25 in8.0 miSouth (170°)3.5 mphOvercast
11:55 AM50.0 °F48.2 °F94 %30.26 in8.0 miSouth (180°)4.6 mphOvercast
12:15 PM50.0 °F48.2 °F94 %30.26 in9.0 miSouth (180°)4.6 mphOvercast
12:35 PM50.0 °F50.0 °F100 %30.26 in10.0 miSouth (180°)4.6 mphOvercast
12:55 PM50.0 °F50.0 °F100 %30.26 in10.0 miSouth (190°)6.9 mphOvercast
1:15 PM51.8 °F50.0 °F94 %30.26 in10.0 miSouth (180°)4.6 mphOvercast
1:35 PM50.0 °F48.2 °F94 %30.26 in10.0 miSouth (170°)4.6 mphOvercast
1:55 PM51.8 °F48.2 °F88 %30.26 in10.0 miSouth (190°)3.5 mphOvercast
2:15 PM51.8 °F50.0 °F94 %30.26 in10.0 miSouth (190°)4.6 mphOvercast
2:35 PM51.8 °F48.2 °F88 %30.26 in9.0 miSSW (200°)5.8 mphOvercast
2:55 PM51.8 °F50.0 °F94 %30.26 in10.0 miSSW (210°)4.6 mphOvercast
3:15 PM51.8 °F48.2 °F88 %30.26 in10.0 miCalmOvercast
3:35 PM50.0 °F50.0 °F100 %30.27 in8.0 miCalmOvercast
3:55 PM50.0 °F50.0 °F100 %30.27 in9.0 miCalmOvercast
4:15 PM50.0 °F50.0 °F100 %30.27 in9.0 miCalmMostly Cloudy
4:35 PM50.0 °F48.2 °F94 %30.27 in9.0 miCalmOvercast
4:55 PM50.0 °F50.0 °F100 %30.28 in8.0 miCalmOvercast
5:15 PM50.0 °F50.0 °F100 %30.28 in9.0 miCalmOvercast
5:35 PM50.0 °F50.0 °F100 %30.28 in7.0 miCalmOvercast
5:55 PM50.0 °F50.0 °F100 %30.28 in8.0 miCalmOvercast
6:15 PM50.0 °F50.0 °F100 %30.29 in8.0 miCalmOvercast
6:35 PM50.0 °F50.0 °F100 %30.29 in9.0 miCalmOvercast
6:55 PM50.0 °F48.2 °F94 %30.28 in10.0 miCalmOvercast
7:15 PM50.0 °F48.2 °F94 %30.29 in10.0 miCalmOvercast
7:35 PM50.0 °F48.2 °F94 %30.29 in10.0 miCalmOvercast
7:55 PM50.0 °F50.0 °F100 %30.29 in10.0 miNorthOvercast
8:15 PM50.0 °F50.0 °F100 %30.29 in8.0 miCalmMostly Cloudy
8:35 PM48.2 °F48.2 °F100 %30.29 in8.0 miCalmMostly Cloudy
8:55 PM48.2 °F48.2 °F100 %30.30 in8.0 miCalmOvercast
9:15 PM48.2 °F48.2 °F100 %30.30 in10.0 miCalmOvercast
9:35 PM48.2 °F48.2 °F100 %30.31 in8.0 miCalmMostly Cloudy
9:55 PM48.2 °F48.2 °F100 %30.31 in9.0 miCalmMostly Cloudy
10:15 PM48.2 °F48.2 °F100 %30.32 in6.0 miCalmOvercast
10:35 PM48.2 °F48.2 °F100 %30.32 in8.0 miCalmOvercast
10:55 PM48.2 °F48.2 °F100 %30.32 in7.0 miCalmOvercast
11:15 PM48.2 °F48.2 °F100 %30.32 in7.0 miCalmMostly Cloudy
11:35 PM48.2 °F48.2 °F100 %30.32 in8.0 miCalmMostly Cloudy
11:55 PM48.2 °F48.2 °F100 %30.32 in9.0 miCalmOvercast
Hourly data recorded from CZBB, located miles away from Vancouver, British Columbia







STORIES FROM OUR PARTNERS